Location: Baumgarten
(49.0970°N, 12.7493°E)
Time: 08:09:43
(UTC+00:00)

SL-16 R/B - Pass Details

Date: 05 July 2020
Orbit: 985 x 1006 km, 99.5° (Epoch: 04 August)

Event Time Altitude Azimuth Distance (km) Brightness Sun altitude
Exits shadow 23:31:34 - 127° (SE) 3,147 4.9 -18.1°
Reaches altitude 10° 23:32:40 10° 123° (ESE) 2,766 4.6 -18.1°
Maximum altitude 23:38:11 35° 60° (ENE) 1,568 3.9 -18.0°
Drops below altitude 10° 23:43:45 10° 358° (N) 2,791 6.1 -17.9°
Sets 23:46:26 0° 350° (N) 3,747 6.9 -17.9°
